STARLINK-3742, 52303

Orbit data source: Space-Track

STARLINK-3742, 52303 is a payload satellite owned by SpaceX/Seattle (US) in LEO that was launched on Thu, 21 Apr 2022 UTC via an FALCON 9 launch vehicle from the Air Force Eastern Test Range (AFETR). Payload-class satellites include a variety of spacecraft equipped with specific instruments for various scientific and technological missions. These include communications satellites like Starlink; space stations such as the ISS; scientific satellites like the Hubble; Earth observation satellites from companies like Planet Labs, Umbra, and HawkEye 360; GPS; miniature CubeSats for education and research; and military/defense satellites.

Loading next visibility...
Identifier
52303, 2022-041AU
Orbit
LEO
Country
Flag of USUS
Related business
Manufacturer
SpaceX/Seattle
Mission
Operational Commercial Communications
Bus & Motor
STARLINK, Unknown motor
Mass
297 kg wet, ~275 kg dry
Launch date (UTC)
2022-04-21 (4 years ago)
Launch vehicle
FALCON 9
Launch site
Air Force Eastern Test Range (AFETR)
Object type
Payload
Rocket body
Debris
Shape & HBR
Box + 1 Pan, 10.1 m
Radar Cross Section
11.087 m², Large (>1 m²)

Expand to show TLE details & history
Last TLE update: 15 hours ago

TLE from 15 hours ago
0 STARLINK-3742
1 52303U 22041AU  26129.86715544 -.00001622  00000-0 -83828-4 0  9998
2 52303  53.2163 184.4840 0001202  93.5980 266.5149 15.08835414224968
Epoch: 2026-05-09T20:48Z
TLE epoch observation values (Epoch: 2026-05-09T20:48:42.230Z)
Latitude
-0.00005°
Longitude
4.62957°
Altitude
540.705 km
Speed
7.593 km/s
True Right ascension
12h 17m 56s
True Declination
0° 00' 00"
Sunlit
Object was in full shadow at epoch
Visualization orbit readout
Latitude
Unknown
Longitude
Unknown
Altitude
Unknown
Speed
Unknown
Apparent Right ascension
Unknown
Apparent Declination
Unknown
Sunlit
N/A
Visualization observer readout
Local Sidereal Time
19:48:57
Azimuth
Unknown
Elevation
Unknown
Doppler factor
Unknown
Orbital elements
Apogee altitude
540.834 km
Perigee altitude
539.171 km
Semi-major axis
6,918.14 km
Eccentricity
0.00012
Inclination
53.2163°
RAAN
184.484°
Arg. of periapsis
93.598°
True anomaly
266.50115°
Mean anomaly
266.5149°
Eccentric anomaly
266.50803°
Mean motion
3.77189 °/min
Orbital period
95.44 mins
BSTAR
-0.000083828
Loading maneuver chart data...
Computing Atmospheric mass density...
Loading historical data...
Loading historical data...
Loading historical data...
Loading historical data...
Loading historical data...
Loading historical data...
Loading historical data...

Documentation

Showing up to 5 results
|